Plovdiv, Bulgaria

9:01 PM EET on November 14, 2019 (GMT +0200)
Plovdiv

Weather History for LBPD - October, 2019

Change the Weather History Date:

Monday, October 21, 2019

  Actual Average (WUND) Record (WUND)
Temperature  
Mean Temperature 63 °F -  
Max Temperature 78 °F - - (-1)
Min Temperature 48 °F - - (-1)
Degree Days  
Heating Degree Days 2    
Growing Degree Days 13 (Base 50)    
Moisture  
Dew Point 49 °F    
Average Humidity 66    
Maximum Humidity 94    
Minimum Humidity 36    
Precipitation  
Precipitation 0.00 in - - ()
Sea Level Pressure  
Sea Level Pressure 30.21 in    
Wind  
Wind Speed 3 mph ()    
Max Wind Speed 7 mph    
Max Gust Speed -    
Visibility 5.8 miles    
Events      
Averages and records for this station are not official NWS values.
T = Trace of Precipitation, MM = Missing Value Source: Averaged Metar Reports

Daily Weather History Graph

Daily Weather History Graph

Search for Another Location

Airport or City:

Astronomy

Oct. 21, 2019 Rise Set
Actual Time 7:39 AM EEST 6:30 PM EEST
Civil Twilight 7:11 AM EEST 6:59 PM EEST
Nautical Twilight 6:38 AM EEST 7:31 PM EEST
Astronomical Twilight 6:06 AM EEST 8:04 PM EEST
Moon No Moon Rise 2:46 PM EEST (10/21)
Length of Visible Light 11h 47m
Length of Day
10h 50m
Waning Gibbous, 52% of the Moon is Illuminated
Oct 21
Waning Gibbous
Oct 21
Last Quarter
Oct 28
New
Nov 4
First Quarter
Nov 12
Full

Hourly Weather History & Observations

Time (EEST) Temp. Dew Point Humidity Pressure Visibility Wind Dir Wind Speed Gust Speed Precip Events Conditions
12:00 AM 55.4 °F 50.0 °F 82% 30.21 in 6.2 mi WSW 3.5 mph - N/A   Unknown
12:30 AM 57.2 °F 51.8 °F 82% 30.21 in 6.2 mi WNW 3.5 mph - N/A   Unknown
1:00 AM 55.4 °F 50.0 °F 82% 30.21 in 6.2 mi SSW 3.5 mph - N/A   Unknown
1:30 AM 57.2 °F 50.0 °F 77% 30.21 in 6.2 mi WNW 4.6 mph - N/A   Unknown
2:00 AM 55.4 °F 50.0 °F 82% 30.21 in 6.2 mi West 1.2 mph - N/A   Unknown
2:30 AM 51.8 °F 48.2 °F 88% 30.21 in 5.6 mi West 3.5 mph - N/A   Unknown
3:30 AM 48.2 °F 46.4 °F 93% 30.21 in 5.0 mi SW 5.8 mph - N/A   Unknown
4:00 AM 53.6 °F 50.0 °F 88% 30.21 in 5.6 mi SSW 4.6 mph - N/A   Unknown
4:30 AM 50.0 °F 48.2 °F 94% 30.21 in 6.2 mi SSW 4.6 mph - N/A   Unknown
5:00 AM 50.0 °F 46.4 °F 87% 30.21 in 5.6 mi SSW 3.5 mph - N/A   Unknown
5:30 AM 50.0 °F 48.2 °F 94% 30.21 in 5.6 mi Calm Calm - N/A   Unknown
6:00 AM 51.8 °F 50.0 °F 94% 30.24 in 5.0 mi Calm Calm - N/A   Unknown
6:30 AM 50.0 °F 48.2 °F 94% 30.24 in 3.1 mi Calm Calm - N/A   Mist
7:00 AM 48.2 °F 46.4 °F 93% 30.24 in 4.3 mi WNW 3.5 mph - N/A   Unknown
7:30 AM 48.2 °F 46.4 °F 93% 30.24 in 3.1 mi South 3.5 mph - N/A   Mist
8:00 AM 51.8 °F 50.0 °F 94% 30.24 in 3.7 mi WNW 2.3 mph - N/A   Unknown
8:30 AM 50.0 °F 46.4 °F 87% 30.24 in 4.3 mi Variable 1.2 mph - N/A   Unknown
9:30 AM 55.4 °F 50.0 °F 82% 30.24 in 6.2 mi WNW 4.6 mph - N/A   Unknown
10:00 AM 59.0 °F 50.0 °F 72% 30.24 in 6.2 mi WNW 4.6 mph - N/A   Unknown
10:30 AM 60.8 °F 50.0 °F 68% 30.24 in 6.2 mi NW 4.6 mph - N/A   Unknown
11:00 AM 62.6 °F 50.0 °F 63% 30.24 in 6.2 mi West 3.5 mph - N/A   Unknown
11:30 AM 66.2 °F 50.0 °F 56% 30.24 in 6.2 mi Variable 2.3 mph - N/A   Unknown
12:00 PM 68.0 °F 50.0 °F 52% 30.24 in 6.2 mi Variable 3.5 mph - N/A   Unknown
12:30 PM 69.8 °F 51.8 °F 53% 30.24 in 6.2 mi Variable 3.5 mph - N/A   Unknown
1:00 PM 71.6 °F 51.8 °F 50% 30.24 in 6.2 mi Variable 2.3 mph - N/A   Unknown
1:30 PM 73.4 °F 50.0 °F 44% 30.21 in 6.2 mi Variable 2.3 mph - N/A   Unknown
2:00 PM 75.2 °F 50.0 °F 41% 30.21 in 6.2 mi West 3.5 mph - N/A   Unknown
2:30 PM 77.0 °F 50.0 °F 39% 30.21 in 6.2 mi Variable 3.5 mph - N/A   Unknown
3:00 PM 77.0 °F 50.0 °F 39% 30.21 in 6.2 mi Variable 3.5 mph - N/A   Unknown
3:30 PM 77.0 °F 50.0 °F 39% 30.18 in 6.2 mi East 4.6 mph - N/A   Unknown
4:00 PM 77.0 °F 50.0 °F 39% 30.18 in 6.2 mi SE 4.6 mph - N/A   Unknown
4:30 PM 78.8 °F 50.0 °F 36% 30.18 in 6.2 mi ESE 5.8 mph - N/A   Unknown
5:00 PM 78.8 °F 50.0 °F 36% 30.18 in 6.2 mi East 3.5 mph - N/A   Unknown
5:30 PM 77.0 °F 50.0 °F 39% 30.18 in 6.2 mi ESE 5.8 mph - N/A   Unknown
6:00 PM 75.2 °F 50.0 °F 41% 30.18 in 6.2 mi East 5.8 mph - N/A   Unknown
7:00 PM 68.0 °F 51.8 °F 56% 30.18 in 6.2 mi SSE 2.3 mph - N/A   Unknown
7:30 PM 66.2 °F 48.2 °F 52% 30.18 in 6.2 mi SSE 4.6 mph - N/A   Unknown
8:00 PM 68.0 °F 48.2 °F 49% 30.18 in 6.2 mi SE 6.9 mph - N/A   Unknown
8:30 PM 64.4 °F 50.0 °F 59% 30.18 in 6.2 mi SE 5.8 mph - N/A   Unknown
9:00 PM 66.2 °F 46.4 °F 49% 30.18 in 6.2 mi ESE 5.8 mph - N/A   Unknown
9:30 PM 64.4 °F 46.4 °F 52% 30.18 in 6.2 mi East 5.8 mph - N/A   Unknown
10:00 PM 59.0 °F 46.4 °F 63% 30.21 in 6.2 mi Variable 1.2 mph - N/A   Unknown
10:30 PM 59.0 °F 46.4 °F 63% 30.21 in 6.2 mi Variable 2.3 mph - N/A   Unknown
11:00 PM 57.2 °F 46.4 °F 67% 30.21 in 6.2 mi Calm Calm - N/A   Unknown
11:30 PM 55.4 °F 48.2 °F 77% 30.21 in 6.2 mi WSW 4.6 mph - N/A   Unknown